When you browse on this site, cookies collect data to enhance your experience and personalize the content and advertising you see.
Visit our Privacy Policy to learn more. By continuing to use the site, you agree to this use of cookies and data.
  • In Hungary
  • List of Countries
  • For 7 days
  • Water Temperature
  • Satellite Maps
  • Weather Map
  • News
  • Weather Widgets
  • user-avatar
    Login

    Hourly Weather Padang

    Today, 17 July, Wednesday

    Time Temperature Precipitation Wind Pressure Humidity
    00:00 +26°C° 0 mm 1 mps 757 mmHg 95%
    01:00 +26°C° 0 mm 1 mps 757 mmHg 94%
    02:00 +26°C° 0 mm 1 mps 757 mmHg 93%
    03:00 +26°C° 0 mm 1 mps 757 mmHg 92%
    04:00 +26°C° 0 mm 1 mps 756 mmHg 91%
    05:00 +26°C° 0 mm 1 mps 756 mmHg 90%
    06:00 +26°C° 0 mm 1 mps 757 mmHg 89%
    07:00 +26°C° 0 mm 1 mps 757 mmHg 89%
    08:00 +28°C° 0 mm 1 mps 757 mmHg 80%
    09:00 +30°C° 0 mm 1 mps 757 mmHg 71%
    10:00 +33°C° 0 mm 1 mps 757 mmHg 62%
    11:00 +34°C° 0 mm 2 mps 757 mmHg 62%
    12:00 +35°C° 0 mm 2 mps 756 mmHg 62%
    13:00 +35°C° 0 mm 3 mps 756 mmHg 62%
    14:00 +34°C° 0.1 mm 3 mps 755 mmHg 68%
    15:00 +33°C° 0.1 mm 3 mps 754 mmHg 74%
    16:00 +31°C° 0.1 mm 3 mps 754 mmHg 81%
    17:00 +30°C° 0.1 mm 3 mps 754 mmHg 86%
    18:00 +29°C° 0.1 mm 3 mps 754 mmHg 92%
    19:00 +28°C° 0.1 mm 3 mps 755 mmHg 97%
    20:00 +27°C° 0.1 mm 3 mps 755 mmHg 97%
    21:00 +27°C° 0.1 mm 3 mps 756 mmHg 96%
    22:00 +27°C° 0.1 mm 2 mps 756 mmHg 96%
    23:00 +26°C° 0 mm 2 mps 756 mmHg 95%

    Tomorrow, 18 July, Thursday

    Time Temperature Precipitation Wind Pressure Humidity
    00:00 +26°C° 0 mm 2 mps 756 mmHg 94%
    01:00 +26°C° 0 mm 2 mps 756 mmHg 93%
    02:00 +26°C° 0 mm 2 mps 756 mmHg 93%
    03:00 +26°C° 0 mm 2 mps 756 mmHg 92%
    04:00 +26°C° 0 mm 2 mps 755 mmHg 92%
    05:00 +26°C° 0 mm 2 mps 756 mmHg 91%
    06:00 +26°C° 0 mm 2 mps 756 mmHg 91%
    07:00 +26°C° 0 mm 1 mps 756 mmHg 90%
    08:00 +28°C° 0 mm 1 mps 756 mmHg 81%
    09:00 +31°C° 0 mm 1 mps 756 mmHg 71%
    10:00 +34°C° 0 mm 2 mps 756 mmHg 62%
    11:00 +35°C° 0 mm 2 mps 756 mmHg 60%
    12:00 +35°C° 0 mm 3 mps 756 mmHg 58%
    13:00 +36°C° 0 mm 3 mps 755 mmHg 56%
    14:00 +35°C° 0.1 mm 3 mps 755 mmHg 62%
    15:00 +34°C° 0.1 mm 3 mps 754 mmHg 67%
    16:00 +33°C° 0.1 mm 3 mps 753 mmHg 72%
    17:00 +31°C° 0.1 mm 3 mps 754 mmHg 80%
    18:00 +29°C° 0.1 mm 3 mps 754 mmHg 88%
    19:00 +28°C° 0.1 mm 3 mps 755 mmHg 97%
    20:00 +28°C° 0.1 mm 2 mps 755 mmHg 97%
    21:00 +27°C° 0.1 mm 2 mps 756 mmHg 97%
    22:00 +27°C° 0.1 mm 2 mps 757 mmHg 96%
    23:00 +27°C° 0.2 mm 2 mps 756 mmHg 96%

    Day after tomorrow, 19 July, Friday

    Time Temperature Precipitation Wind Pressure Humidity
    00:00 +27°C° 0.2 mm 2 mps 756 mmHg 96%
    01:00 +27°C° 0.2 mm 1 mps 756 mmHg 96%
    02:00 +27°C° 0.2 mm 1 mps 756 mmHg 96%
    03:00 +27°C° 0.2 mm 2 mps 755 mmHg 96%
    04:00 +26°C° 0.2 mm 2 mps 755 mmHg 96%
    05:00 +26°C° 0.1 mm 2 mps 755 mmHg 96%
    06:00 +26°C° 0.1 mm 2 mps 756 mmHg 95%
    07:00 +26°C° 0.1 mm 1 mps 756 mmHg 95%
    08:00 +28°C° 0 mm 1 mps 756 mmHg 86%
    09:00 +30°C° 0 mm 1 mps 757 mmHg 76%
    10:00 +33°C° 0 mm 1 mps 757 mmHg 67%
    11:00 +33°C° 0.1 mm 1 mps 756 mmHg 69%
    12:00 +34°C° 0.1 mm 2 mps 756 mmHg 70%
    13:00 +34°C° 0.1 mm 2 mps 755 mmHg 71%
    14:00 +32°C° 0.3 mm 2 mps 755 mmHg 76%
    15:00 +31°C° 0.3 mm 2 mps 754 mmHg 81%
    16:00 +31°C° 0.3 mm 2 mps 754 mmHg 87%
    17:00 +30°C° 0.2 mm 2 mps 754 mmHg 90%
    18:00 +29°C° 0.2 mm 1 mps 754 mmHg 94%
    19:00 +28°C° 0.2 mm 1 mps 755 mmHg 97%
    20:00 +27°C° 0.1 mm 1 mps 755 mmHg 96%
    21:00 +27°C° 0.1 mm 1 mps 756 mmHg 96%
    22:00 +27°C° 0.1 mm 1 mps 757 mmHg 95%
    23:00 +27°C° 0 mm 1 mps 756 mmHg 95%

    20 July, Saturday

    Time Temperature Precipitation Wind Pressure Humidity
    00:00 +26°C° 0 mm 1 mps 756 mmHg 94%
    01:00 +26°C° 0 mm 1 mps 756 mmHg 93%
    02:00 +25°C° 0 mm 1 mps 756 mmHg 92%
    03:00 +25°C° 0 mm 2 mps 755 mmHg 91%
    04:00 +25°C° 0 mm 2 mps 755 mmHg 89%
    05:00 +25°C° 0 mm 2 mps 755 mmHg 88%
    06:00 +25°C° 0 mm 2 mps 756 mmHg 86%
    07:00 +25°C° 0 mm 2 mps 756 mmHg 85%
    08:00 +28°C° 0 mm 1 mps 756 mmHg 75%
    09:00 +30°C° 0 mm 1 mps 756 mmHg 65%
    10:00 +33°C° 0 mm 1 mps 757 mmHg 55%
    11:00 +33°C° 0 mm 1 mps 756 mmHg 56%
    12:00 +34°C° 0 mm 1 mps 756 mmHg 56%
    13:00 +35°C° 0 mm 2 mps 755 mmHg 57%
    14:00 +34°C° 0.1 mm 2 mps 755 mmHg 64%
    15:00 +32°C° 0.1 mm 1 mps 754 mmHg 72%
    16:00 +31°C° 0.1 mm 1 mps 754 mmHg 79%
    17:00 +30°C° 0.1 mm 1 mps 754 mmHg 85%
    18:00 +29°C° 0.1 mm 1 mps 755 mmHg 90%
    19:00 +27°C° 0.1 mm 1 mps 755 mmHg 96%
    20:00 +27°C° 0 mm 1 mps 756 mmHg 95%
    21:00 +27°C° 0 mm 1 mps 756 mmHg 94%
    22:00 +27°C° 0 mm 1 mps 757 mmHg 94%
    23:00 +26°C° 0 mm 1 mps 757 mmHg 93%

    21 July, Sunday

    Time Temperature Precipitation Wind Pressure Humidity
    00:00 +26°C° 0 mm 1 mps 756 mmHg 91%
    01:00 +26°C° 0 mm 1 mps 756 mmHg 90%
    02:00 +26°C° 0 mm 1 mps 756 mmHg 89%
    03:00 +26°C° 0 mm 1 mps 756 mmHg 88%
    04:00 +26°C° 0 mm 1 mps 755 mmHg 87%
    05:00 +26°C° 0 mm 1 mps 756 mmHg 87%
    06:00 +26°C° 0 mm 1 mps 756 mmHg 87%
    07:00 +26°C° 0 mm 1 mps 756 mmHg 87%
    08:00 +29°C° 0 mm 1 mps 757 mmHg 78%
    09:00 +31°C° 0 mm 1 mps 757 mmHg 69%
    10:00 +33°C° 0 mm 1 mps 757 mmHg 60%
    11:00 +33°C° 0.1 mm 1 mps 756 mmHg 62%
    12:00 +33°C° 0.1 mm 1 mps 756 mmHg 64%
    13:00 +34°C° 0.1 mm 2 mps 755 mmHg 66%
    14:00 +34°C° 0.4 mm 2 mps 755 mmHg 71%
    15:00 +32°C° 0.4 mm 1 mps 754 mmHg 76%
    16:00 +31°C° 0.4 mm 1 mps 754 mmHg 81%
    17:00 +30°C° 0.3 mm 1 mps 754 mmHg 86%
    18:00 +26°C° 0.3 mm 0 mps 755 mmHg 91%
    19:00 +25°C° 0.3 mm 0 mps 755 mmHg 95%
    20:00 +25°C° 0.2 mm 0 mps 756 mmHg 95%
    21:00 +27°C° 0.2 mm 1 mps 756 mmHg 94%
    22:00 +26°C° 0.2 mm 1 mps 757 mmHg 94%
    23:00 +26°C° 0 mm 1 mps 757 mmHg 93%

    22 July, Monday

    Time Temperature Precipitation Wind Pressure Humidity
    00:00 +26°C° 0 mm 1 mps 756 mmHg 93%
    01:00 +26°C° 0 mm 1 mps 756 mmHg 92%
    02:00 +26°C° 0.2 mm 2 mps 756 mmHg 92%
    03:00 +26°C° 0.2 mm 2 mps 755 mmHg 92%
    04:00 +26°C° 0.2 mm 2 mps 755 mmHg 92%
    05:00 +26°C° 0.1 mm 2 mps 755 mmHg 91%
    06:00 +26°C° 0.1 mm 2 mps 756 mmHg 90%
    07:00 +26°C° 0.1 mm 2 mps 756 mmHg 89%
    08:00 +28°C° 0 mm 2 mps 756 mmHg 80%
    09:00 +31°C° 0 mm 2 mps 756 mmHg 71%
    10:00 +34°C° 0 mm 2 mps 757 mmHg 63%
    11:00 +32°C° 0.5 mm 2 mps 756 mmHg 71%
    12:00 +31°C° 0.5 mm 2 mps 756 mmHg 80%
    13:00 +31°C° 0.5 mm 2 mps 755 mmHg 88%
    14:00 +30°C° 1 mm 2 mps 755 mmHg 90%
    15:00 +30°C° 1 mm 1 mps 754 mmHg 91%
    16:00 +29°C° 1 mm 1 mps 754 mmHg 93%
    17:00 +28°C° 1.1 mm 1 mps 754 mmHg 94%
    18:00 +28°C° 1.1 mm 1 mps 755 mmHg 96%
    19:00 +27°C° 1.1 mm 1 mps 755 mmHg 98%
    20:00 +27°C° 0.6 mm 1 mps 756 mmHg 97%
    21:00 +27°C° 0.6 mm 1 mps 756 mmHg 97%
    22:00 +27°C° 0.6 mm 1 mps 757 mmHg 96%
    23:00 +27°C° 1 mm 1 mps 757 mmHg 97%
    Show more